This demonstration page uses our WeatherBlox Daily Observations layout. Learn more.

Hourly Observations for September 24, 2015

Temp ( °F °C ) Dew Point ( °F °C ) Humidity (%) Winds ( mph kmh ) Pressure ( in mb ) Visibility ( mi km ) Precip ( " mm )
12:15 am 00:15 Partly Cloudy 67 19.5 62 16.5 83 83 S 17 28 29.91 1013 10 16.0934 0 0
12:35 am 00:35 Partly Cloudy 67 19.5 62 16.7 84 84 S 20 31 29.91 1013 10 16.0934 0 0
12:55 am 00:55 Partly Cloudy 68 20 62 16.5 80 80 SSW 20 31 29.91 1013 10 16.0934 0 0
1:15 am 01:15 Partly Cloudy 68 20 61 15.9 77 77 SSW 16 26 29.91 1013 10 16.0934 0 0
1:35 am 01:35 Cloudy 68 20 60 15.6 76 76 SW 10 17 29.91 1013 10 16.0934 0 0
1:55 am 01:55 Cloudy 68 20 60 15.5 75 75 WSW 9 15 29.91 1013 10 16.0934 0 0
2:15 am 02:15 Cloudy 67 19.4 61 16 81 81 WSW 6 9 29.97 1015 10 16.0934 0 0
2:35 am 02:35 Cloudy 66 19 62 16.5 86 86 WNW 3 6 29.97 1015 10 16.0934 0 0
2:55 am 02:55 Cloudy 65 18.3 60 15.8 85 85 WNW 3 6 29.97 1015 10 16.0934 0 0
3:15 am 03:15 Partly Cloudy 64 17.7 60 15.5 87 87 Calm 29.97 1015 10 16.0934 0 0
3:35 am 03:35 Partly Cloudy 63 17 59 15.1 89 89 SW 3 6 29.97 1015 10 16.0934 0 0
3:55 am 03:55 Partly Cloudy 63 17 59 15.2 89 89 WSW 5 7 29.97 1015 10 16.0934 0 0
4:15 am 04:15 Partly Cloudy 62 16.8 59 14.9 89 89 WSW 5 7 29.97 1015 10 16.0934 0 0
4:35 am 04:35 Clear 62 16.5 58 14.7 89 89 SW 5 7 29.97 1015 10 16.0934 0 0
4:55 am 04:55 Clear 61 16.1 58 14.7 91 91 SW 6 9 30 1016 10 16.0934 0 0
5:15 am 05:15 Mostly Cloudy 60 15.8 58 14.6 93 93 Calm 30 1016 10 16.0934 0 0
5:55 am 05:55 Clear 60 15.5 58 14.3 93 93 WSW 3 6 30.03 1017 10 16.0934 0 0
6:35 am 06:35 Mostly Cloudy 59 15.2 57 14.1 93 93 W 6 9 30.03 1017 10 16.0934 0 0
6:55 am 06:55 Partly Cloudy 59 15.1 57 13.8 92 92 WSW 6 9 30.03 1017 10 16.0934 0 0
7:15 am 07:15 Mostly Cloudy 59 15.2 57 14 93 93 W 6 9 30.03 1017 10 16.0934 0 0
7:35 am 07:35 Mostly Cloudy 59 15.2 57 14 93 93 WSW 6 9 30.03 1017 10 16.0934 0 0
7:55 am 07:55 Mostly Cloudy 60 15.6 58 14.3 92 92 W 7 11 30.03 1017 10 16.0934 0 0
8:15 am 08:15 Cloudy 62 16.5 59 15 91 91 W 8 13 30.03 1017 10 16.0934 0 0
8:35 am 08:35 Cloudy 63 17 59 15 88 88 WNW 9 15 30.03 1017 10 16.0934 0 0
8:55 am 08:55 Cloudy 63 17.3 59 15.1 87 87 W 6 9 30.03 1017 10 16.0934 0 0
9:15 am 09:15 Cloudy 64 18 60 15.3 84 84 W 9 15 30.03 1017 10 16.0934 0 0
9:35 am 09:35 Cloudy 66 18.7 60 15.5 82 82 WNW 10 17 30.03 1017 10 16.0934 0 0
9:55 am 09:55 Cloudy 66 19 60 15.6 81 81 WNW 9 15 30.03 1017 10 16.0934 0 0
10:15 am 10:15 Cloudy 67 19.5 60 15.6 78 78 NW 10 17 30.06 1018 10 16.0934 0 0
10:35 am 10:35 Cloudy 67 19.6 60 15.7 78 78 WNW 9 15 30.06 1018 10 16.0934 0 0
10:55 am 10:55 Mostly Cloudy 69 20.8 61 16 74 74 WNW 8 13 30.03 1017 10 16.0934 0 0
11:15 am 11:15 Mostly Cloudy 69 20.5 61 16.1 76 76 NNW 10 17 30.03 1017 10 16.0934 0 0
11:35 am 11:35 Partly Cloudy 71 21.6 61 16 71 71 NNW 10 17 30.03 1017 10 16.0934 0 0
11:55 am 11:55 Mostly Cloudy 72 22.1 61 16.1 69 69 NNW 9 15 30.03 1017 10 16.0934 0 0
12:15 pm 12:15 Cloudy 71 21.5 61 15.9 71 71 NNW 12 19 30.03 1017 10 16.0934 0 0
12:35 pm 12:35 Cloudy 70 21.3 61 15.9 71 71 N 8 13 30.03 1017 10 16.0934 0 0
12:55 pm 12:55 Cloudy 71 21.5 61 16 71 71 NNW 7 11 30.03 1017 10 16.0934 0 0
1:15 pm 13:15 Cloudy 70 21.1 60 15.8 72 72 N 10 17 30.03 1017 10 16.0934 0 0
1:35 pm 13:35 Cloudy 71 21.5 60 15.4 68 68 NNW 9 15 30.03 1017 10 16.0934 0 0
1:55 pm 13:55 Cloudy 72 22 59 15.1 65 65 NNW 7 11 30.03 1017 10 16.0934 0 0
2:15 pm 14:15 Cloudy 71 21.8 60 15.5 68 68 N 8 13 30.03 1017 10 16.0934 0 0
2:35 pm 14:35 Cloudy 72 22 60 15.5 67 67 N 7 11 30.03 1017 10 16.0934 0 0
2:55 pm 14:55 Cloudy 72 22.3 59 15.1 64 64 N 10 17 30.03 1017 10 16.0934 0 0
3:15 pm 15:15 Cloudy 72 22.2 60 15.6 66 66 NNW 6 9 30.03 1017 10 16.0934 0 0
3:35 pm 15:35 Cloudy 73 22.5 60 15.3 64 64 NNW 9 15 30.03 1017 10 16.0934 0 0
3:55 pm 15:55 Cloudy 72 22.4 59 15.2 64 64 NNW 10 17 30.03 1017 10 16.0934 0 0
4:15 pm 16:15 Cloudy 73 22.5 60 15.4 64 64 N 9 15 30.03 1017 10 16.0934 0 0
4:35 pm 16:35 Cloudy 72 22.4 59 15.1 63 63 NW 13 20 30.03 1017 10 16.0934 0 0
4:55 pm 16:55 Cloudy 72 22 59 15 65 65 NW 10 17 30.03 1017 10 16.0934 0 0
5:15 pm 17:15 Cloudy 71 21.7 59 15.1 66 66 NW 6 9 30.03 1017 10 16.0934 0 0
5:35 pm 17:35 Cloudy 71 21.7 59 15.2 67 67 NNW 6 9 30.03 1017 10 16.0934 0 0
5:55 pm 17:55 Cloudy 71 21.8 60 15.4 67 67 NW 10 17 30.03 1017 10 16.0934 0 0
6:15 pm 18:15 Mostly Cloudy 71 21.6 59 15 66 66 NNW 8 13 30.03 1017 10 16.0934 0 0
6:35 pm 18:35 Partly Cloudy 72 22 59 15.2 65 65 NNW 10 17 30.03 1017 10 16.0934 0 0
6:55 pm 18:55 Mostly Cloudy 71 21.5 60 15.3 68 68 NNW 10 17 30.03 1017 10 16.0934 0 0
7:15 pm 19:15 Partly Cloudy 69 20.6 60 15.5 73 73 NNW 7 11 30.03 1017 10 16.0934 0 0
7:35 pm 19:35 Partly Cloudy 68 19.9 60 15.4 75 75 NNW 5 7 30.06 1018 10 16.0934 0 0
7:55 pm 19:55 Partly Cloudy 66 19 60 15.3 79 79 NNW 6 9 30.06 1018 10 16.0934 0 0
8:15 pm 20:15 Partly Cloudy 65 18.6 59 15.2 81 81 NNW 7 11 30.06 1018 10 16.0934 0 0
8:35 pm 20:35 Mostly Cloudy 65 18.5 60 15.3 82 82 NNW 6 9 30.06 1018 10 16.0934 0 0
8:55 pm 20:55 Partly Cloudy 65 18.2 60 15.5 84 84 NNW 5 7 30.06 1018 10 16.0934 0 0
9:15 pm 21:15 Clear 64 17.5 59 15.2 86 86 NW 5 7 30.09 1019 10 16.0934 0 0
9:35 pm 21:35 Clear 63 17.1 59 15.1 88 88 NW 5 7 30.12 1020 10 16.0934 0 0
9:55 pm 21:55 Clear 63 17 59 15 88 88 NW 3 6 30.12 1020 10 16.0934 0 0
10:15 pm 22:15 Clear 63 17 59 15.2 89 89 NW 5 7 30.12 1020 10 16.0934 0 0
10:35 pm 22:35 Clear 62 16.7 59 15.1 90 90 NW 5 7 30.12 1020 10 16.0934 0 0
10:55 pm 22:55 Clear 62 16.5 59 15 91 91 NW 6 9 30.12 1020 10 16.0934 0 0
11:15 pm 23:15 Clear 61 16.3 59 15 92 92 WNW 5 7 30.12 1020 10 16.0934 0 0
11:35 pm 23:35 Clear 61 16 58 14.7 92 92 WNW 5 7 30.12 1020 10 16.0934 0 0
11:55 pm 23:55 Mostly Cloudy 61 16 58 14.7 92 92 NW 6 9 30.12 1020 10 16.0934 0 0

Powered by AerisWeather